Lid_Strength_Index
2 3 3 3 2 2 2 2 1 2 2 4 4 5 5 5 6 6 7 8 8 9
2 2 3 3 2 2 2 1 1 1 3 5 5 5 5 5 7 7 8 9 10 10
3 2 3 3 3 2 2 2 2 2 4 5 5 6 6 7 8 9 9 9 10 11
3 3 3 3 2 1 2 3 4 5 6 5 7 7 7 7 8 10 10 10 11 11
3 3 4 2 2 2 4 4 5 5 5 6 7 7 8 9 10 10 11 11 11 11
3 3 3 2 2 3 3 4 4 4 5 7 8 9 9 11 10 11 11 11 11 11
3 3 3 4 3 4 3 4 5 7 7 8 9 9 10 11 11 11 11 11 11 12
2 2 2 3 3 4 4 6 7 8 8 9 9 10 11 11 11 12 12 11 10 11
3 3 3 3 4 4 5 6 6 7 9 10 10 11 10 11 13 12 12 13 12 11
4 5 5 5 5 7 7 7 8 9 9 10 11 10 11 11 12 13 13 13 12 11
4 6 6 6 6 7 7 8 9 9 10 10 11 11 11 11 12 13 13 13 12 12
6 6 7 8 8 8 8 9 10 10 11 12 12 12 12 12 12 13 13 12 12 10
5 6 8 9 9 9 9 11 11 12 12 11 12 12 12 12 12 13 12 10 10 9
6 7 8 9 9 10 10 11 12 12 11 12 12 13 12 12 12 11 10 10 10 10